Location: Beccas
(43.4309°N, 0.1528°E)
Time: 01:25:53
(UTC+00:00)

Cosmos 1607 - Pass Details

Date: 15 October 2021
Orbit: 918 x 984 km, 65.0° (Epoch: 02 December)

Event Time Altitude Azimuth Distance (km) Brightness Sun altitude
Rises 19:07:49 0° 324° (NW) 3,657 7.7 -21.0°
Reaches altitude 10° 19:10:24 10° 323° (NW) 2,697 6.9 -21.5°
Maximum altitude 19:16:40 72° 240° (WSW) 992 4.1 -22.6°
Enters shadow 19:20:31 24° 160° (SSE) 1,827 5.1 -23.3°
